Miscellaneous Local Product
Issued by NWS North Platte, NE

Home | Current Version | Previous Version | Graphics & Text | Print | Product List | Glossary On
Versions: 1 2 3 4 5 6 7 8 9 10 11 12 13 14 15 16 17 18 19 20 21 22 23 24 25 26 27 28 29 30 31 32 33 34 35 36 37 38 39 40 41 42 43 44 45 46 47 48 49 50
876
AXUS43 KLBF 240110
MISLBF


WESTERN AND NORTH CENTRAL NEBRASKA HOURLY WEATHER ROUNDUP
NATIONAL WEATHER SERVICE NORTH PLATTE NE
700 PM CST THU FEB 23 2017

NOTE: "FAIR" INDICATES FEW OR NO CLOUDS BELOW 12,000 FEET WITH NO
SIGNIFICANT WEATHER AND/OR OBSTRUCTIONS TO VISIBILITY.

NOTE: STATIONS NOT REPORTING VARIABLES SUCH AS SKY/WEATHER OR
PRESSURE ARE PROVIDED BY RAWS AND APRS NETWORKS AND ARE NOT UNDER
NATIONAL WEATHER SERVICE QUALITY CONTROL.

...OBSERVATIONS IN AND NEAR THE EASTERN PANHANDLE OF NEBRASKA...

CITY           SKY/WX    TMP DP  RH WIND       PRES   REMARKS
PINE RIDGE     LGT SNOW  26  23  88 NE16      29.86R VSB 1   WCI  14
CHADRON        LGT SNOW  25  22  88 NE17G23   29.88R VSB 1   WCI  12
ALLIANCE       LGT SNOW  22  19  89 N22       29.80R VSB 1   WCI   6
SIDNEY         CLOUDY    21  18  88 N17       29.77R FOG     WCI   7
CRESCENT LAKE    N/A     22  21  95 NE14G23     N/A  WCI   9
$$

...OBSERVATIONS IN NORTHERN NEBRASKA AND FAR SOUTHERN SOUTH DAKOTA...

CITY           SKY/WX    TMP DP  RH WIND       PRES   REMARKS
WINNER         LGT SNOW  28  24  85 N22       29.88R FOG     WCI  14
VALENTINE      FOG       25  21  85 N24G31    29.83R VSB 1/2 WCI   9
THEDFORD       SNOW      26  25  94 N15       29.77R VSB 1/2 WCI  14
AINSWORTH      CLOUDY    26  26  98 N17G25    29.80R WCI  13
O`NEILL        CLOUDY    28  28  98 NE23G30   29.75S WCI  14
ORD            LGT SNOW  29  25  85 N14       29.71R VSB 1   WCI  18
BROKEN BOW     LGT SNOW  28  26  92 N15       29.71R VSB 1   WCI  16
VALENTINE NWR    N/A     24  23  95 N13G23      N/A  WCI  12
BUTTE            N/A     26  25  95 N23G31      N/A  WCI  11
HALSEY           N/A     25  23  93 N7G17       N/A  WCI  17
CHAMBERS         N/A     28  27  96 N6          N/A  WCI  22
EWING            N/A     29  28  96 NE12        N/A  WCI  19
$$

...OBSERVATIONS IN SOUTHWEST NEBRASKA AND FAR NORTHEAST COLORADO...

CITY           SKY/WX    TMP DP  RH WIND       PRES   REMARKS
HOLYOKE        LGT SNOW  27  25  93 N8        29.75R WCI  18
IMPERIAL       LGT SNOW  26  23  88 N17       29.73R FOG     WCI  13
OGALLALA       LGT SNOW  27  24  89 N14       29.77R WCI  15
NORTH PLATTE   LGT SNOW  27  24  89 N10       29.75R VSB 3/4 WCI  17
MCCOOK         LGT SNOW  30  29  96 N13       29.71R FOG     WCI  20
LEXINGTON      LGT SNOW  29  27  92 N13       29.70R WCI  19
STAPLETON        N/A     24  22  93 CALM        N/A
GOTHENBURG       N/A     27  25  92 N8          N/A  WCI  19
CALLAWAY         N/A     26  25  95 N12         N/A  WCI  16
$$

...OBSERVATIONS IN CENTRAL LINCOLN COUNTY AREA...

CITY           SKY/WX    TMP DP  RH WIND       PRES   REMARKS
N.P. AIRPORT   LGT SNOW  27  24  89 N10       29.75R VSB 3/4 WCI  17
N.P. DOWNTOWN    N/A     26  24  92 N9G17       N/A  WCI  17
N.P. SOUTHEAST   N/A     25  23  92 N5G16       N/A  WCI  19
N.P. HILLCREST   N/A     26  25  94 NE12G20     N/A  WCI  16
$$

...SOME OBSERVATIONS FROM AROUND THE REGION...

CITY           SKY/WX    TMP DP  RH WIND       PRES   REMARKS
LARAMIE        LGT SNOW  13   7  77 NE12      29.68R WCI  -1
CHEYENNE       LGT SNOW  15  11  83 N17G25    29.75R FOG     WCI  -1
DENVER         LGT SNOW  21  16  81 N17       29.75R VSB 1   WCI   7
AKRON          LGT SNOW  20  17  88 N16       29.73R FOG     WCI   6
SCOTTSBLUFF    LGT SNOW  23  20  88 NW6       29.86R VSB 1   WCI  16
RAPID CITY     LGT SNOW  27  24  89 N12       29.93R FOG     WCI  17
BISMARCK       CLOUDY    24  18  77 N12       30.09R WCI  13
PIERRE         CLOUDY    28  21  75 NE23G35   29.93R WCI  14
SIOUX FALLS    LGT SNOW  30  27  88 NE21G30   29.82R FOG     WCI  17
OMAHA          LGT RAIN  38  34  85 NE18G29   29.61S FOG     WCI  28
GRAND ISLAND   LGT SNOW  30  30 100 NE18      29.64R FOG     WCI  18
KANSAS CITY    CLEAR     50  44  80 NE12      29.44R
WICHITA        PTCLDY    62  49  62 S5        29.30R
OKLAHOMA CITY  PTCLDY    70  43  37 S9        29.38R
DALLAS         PTCLDY    81  50  33 S16       29.48R
AMARILLO       CLEAR     59   9  13 NW9       29.52R
DODGE CITY     MOCLDY    37  32  82 N28G33    29.53R WCI  25
HAYS           CLOUDY    37  32  82 N20G28    29.58R WCI  27
GOODLAND       CLOUDY    28  27  96 N20G30    29.67R WCI  15
$$




USA.gov is the U.S. government's official web portal to all federal, state and local government web resources and services.